Flag for Finland Weather past 2 weeks in Rovaniemi, Finland

Now
45 °F

Sunny.


Feels Like: 45 °F
Forecast: 29 / 42 °F
Wind: 1 mph from North

Location: Rovaniemi Airport


UV Index: 0 (Low)

Visibility: 10 mi


Pressure: 30.33 "Hg

Humidity: 34%

Dew point: 18 °F

Location of RovaniemiLocation

Historic Weather in Rovaniemi

°F

Rovaniemi temperature yesterday

Maximum temperature yesterday: 46 °F (at 3:20 PM)
Minimum temperature yesterday: 32 °F (at 12:50 AM)
Average temperature yesterday: 39 °F

Past Weeks' High & Low Weather Summary

 TemperatureHumidityPressure
High46 °F (Apr 19, 3:20 PM)100% (Apr 11, 2:50 AM)30.33 "Hg (Apr 11, 2:50 AM)
Low14 °F (Apr 8, 5:50 AM)31% (Apr 20, 5:20 PM)29.09 "Hg (Apr 14, 1:50 AM)
Average32 °F71%29.73 "Hg
* Reported Apr 5 5:20 PM — Apr 20 5:20 PM, Rovaniemi, Weather by CustomWeather, © 2014

Note: Actual official high and low records may vary slightly from our data, if they occured in-between our weather recording intervals... More about our weather records

Advertising

Historic Weather Conditions — Data for Previous 24 hours

 ConditionsComfort  
Time TempWeatherWind HumidityBarometerVisibility
5:20 PM
Apr 20
45 °FSunny.2 mph31%30.33 "Hg10 mi
4:50 PM45 °FSunny.3 mph34%30.33 "Hg10 mi
4:20 PM43 °FSunny.6 mph42%30.33 "Hg10 mi
3:50 PM45 °FSunny.5 mph34%30.33 "Hg10 mi
3:20 PM45 °FSunny.6 mph34%30.33 "Hg10 mi
2:50 PM43 °FSunny.3 mph36%30.33 "Hg10 mi
2:20 PM43 °FSunny.6 mph39%30.33 "Hg10 mi
1:50 PM43 °FSunny.7 mph39%30.33 "Hg10 mi
1:20 PM41 °FSunny.8 mph42%30.33 "Hg10 mi
12:50 PM41 °FSunny.7 mph45%30.33 "Hg10 mi
12:20 PM41 °FSunny.8 mph45%30.30 "Hg10 mi
11:50 AM41 °FSunny.10 mph45%30.30 "Hg10 mi
11:20 AM39 °FSunny.13 mph52%30.27 "Hg10 mi
10:50 AM39 °FSunny.12 mph48%30.27 "Hg10 mi
10:20 AM39 °FSunny.12 mph48%30.24 "Hg10 mi
9:50 AM39 °FSunny.13 mph48%30.24 "Hg10 mi
9:20 AM39 °FSunny.15 mph48%30.21 "Hg10 mi
8:50 AM39 °FSunny.14 mph48%30.21 "Hg10 mi
8:20 AM37 °FSunny.13 mph52%30.21 "Hg10 mi
7:50 AM37 °FPassing clouds.13 mph52%30.18 "HgN/A
7:20 AM36 °FSunny.10 mph56%30.15 "Hg10 mi
6:50 AM36 °FSunny.10 mph56%30.15 "Hg10 mi
6:20 AM36 °FSunny.9 mph60%30.12 "Hg10 mi
5:50 AM36 °FClear.8 mph56%30.12 "Hg10 mi
5:20 AM36 °FClear.10 mph56%30.09 "Hg10 mi
4:50 AM37 °FClear.12 mph52%30.07 "Hg10 mi
4:20 AM37 °FClear.13 mph52%30.07 "Hg10 mi
3:50 AM39 °FClear.12 mph48%30.07 "Hg10 mi
3:20 AM39 °FClear.13 mph52%30.04 "Hg10 mi
2:50 AM39 °FClear.14 mph52%30.01 "Hg10 mi
2:20 AM41 °FClear.16 mph53%29.98 "Hg10 mi
1:50 AM41 °FClear.16 mph57%29.95 "Hg10 mi
1:20 AM41 °FClear.15 mph66%29.95 "Hg10 mi
12:50 AM43 °FClear.13 mph66%29.92 "Hg10 mi
12:20 AM41 °FClear.15 mph70%29.92 "Hg10 mi
11:50 PM
Apr 19
39 °FClear.12 mph81%29.92 "Hg10 mi
11:20 PM39 °FClear.14 mph81%29.89 "Hg10 mi
10:50 PM41 °FClear.14 mph76%29.89 "Hg10 mi
10:20 PM41 °FClear.14 mph76%29.86 "Hg10 mi
9:50 PM43 °FSunny.16 mph71%29.86 "Hg10 mi
9:20 PM43 °FSunny.14 mph71%29.86 "Hg10 mi
8:50 PM43 °FSunny.16 mph66%29.83 "Hg10 mi
8:20 PM45 °FSunny.16 mph61%29.83 "Hg10 mi
7:50 PM45 °FSunny.17 mph61%29.83 "Hg10 mi
7:20 PM43 °FSunny.18 mph66%29.83 "Hg10 mi
6:50 PM45 °FSunny.21 mph61%29.83 "Hg10 mi
6:20 PM43 °FSunny.21 mph66%29.83 "Hg10 mi
Weather by CustomWeather, © 2014

See weather overview